TAM612 SBGR-SCEL

Flight info

Callsign TAM612
Flight time 3h 48m
Altitude 32000
Route UBSOD UZ38 ARTUT UM400 CBA UZ105 UMKAL
Aircraft A21N/M-SDE3FGHIJ2RWY/LB1

Departure

Time 2026-05-04 15:38
Airport São Paulo/Guarulhos–Governor André Franco Montoro International Airport (SBGR)

Arrival

Time 2026-05-04 19:26
Airport Comodoro Arturo Merino Benítez International Airport (SCEL)
Time Latitude Longitude Altitude Speed Heading
2026-05-04 15:01 -23.42782 -46.47958 2446 ft 0 kts 265°
2026-05-04 15:26 -23.42782 -46.47953 2446 ft 1 kts 265°
2026-05-04 15:26 -23.42781 -46.47936 2445 ft 3 kts 265°
2026-05-04 15:26 -23.42756 -46.47889 2445 ft 3 kts 179°
2026-05-04 15:27 -23.42744 -46.47891 2445 ft 0 kts 169°
2026-05-04 15:27 -23.42745 -46.47891 2445 ft 0 kts 169°
2026-05-04 15:28 -23.42746 -46.47891 2445 ft 0 kts 169°
2026-05-04 15:28 -23.42777 -46.47884 2444 ft 4 kts 169°
2026-05-04 15:29 -23.42824 -46.47875 2444 ft 9 kts 169°
2026-05-04 15:30 -23.42963 -46.47823 2443 ft 0 kts 168°
2026-05-04 15:30 -23.42977 -46.47820 2443 ft 0 kts 168°
2026-05-04 15:31 -23.43022 -46.47810 2444 ft 7 kts 168°
2026-05-04 15:31 -23.43074 -46.47795 2445 ft 7 kts 165°
2026-05-04 15:32 -23.43145 -46.47930 2446 ft 8 kts 253°
2026-05-04 15:32 -23.43183 -46.48073 2447 ft 11 kts 253°
2026-05-04 15:33 -23.43230 -46.48251 2446 ft 13 kts 253°
2026-05-04 15:34 -23.43282 -46.48349 2446 ft 0 kts 200°
2026-05-04 15:34 -23.43292 -46.48354 2446 ft 4 kts 200°
2026-05-04 15:35 -23.43412 -46.48320 2449 ft 12 kts 125°
2026-05-04 15:35 -23.43393 -46.48206 2448 ft 21 kts 73°
2026-05-04 15:35 -23.43377 -46.48147 2448 ft 0 kts 73°
2026-05-04 15:36 -23.43377 -46.48146 2448 ft 0 kts 73°
2026-05-04 15:37 -23.43365 -46.48102 2449 ft 27 kts 73°
2026-05-04 15:37 -23.43242 -46.47645 2450 ft 98 kts 73°
2026-05-04 15:37 -23.42991 -46.46711 2448 ft 157 kts 73°
2026-05-04 15:37 -23.42633 -46.45406 2624 ft 190 kts 73°
2026-05-04 15:38 -23.42247 -46.44019 3207 ft 193 kts 73°
2026-05-04 15:38 -23.41840 -46.42615 3551 ft 203 kts 71°
2026-05-04 15:38 -23.41391 -46.41097 3815 ft 217 kts 71°
2026-05-04 15:38 -23.40916 -46.39473 4002 ft 236 kts 71°
2026-05-04 15:39 -23.40414 -46.37712 4290 ft 252 kts 74°
2026-05-04 15:39 -23.40256 -46.35765 4610 ft 269 kts 95°
2026-05-04 15:39 -23.41397 -46.31811 5719 ft 281 kts 108°
2026-05-04 15:40 -23.42086 -46.29780 6280 ft 286 kts 108°
2026-05-04 15:40 -23.42786 -46.27746 6849 ft 292 kts 112°
2026-05-04 15:40 -23.44003 -46.25976 7396 ft 297 kts 143°
2026-05-04 15:40 -23.45855 -46.25074 8037 ft 294 kts 173°
2026-05-04 15:41 -23.47862 -46.25156 8653 ft 290 kts 193°
2026-05-04 15:41 -23.49849 -46.25605 9216 ft 293 kts 194°
2026-05-04 15:41 -23.51839 -46.26067 9767 ft 295 kts 194°
2026-05-04 15:41 -23.53816 -46.26668 10354 ft 293 kts 208°
2026-05-04 15:42 -23.55433 -46.27987 10741 ft 296 kts 232°
2026-05-04 15:42 -23.56444 -46.29980 10984 ft 305 kts 255°
2026-05-04 15:42 -23.56912 -46.32264 11239 ft 317 kts 259°
2026-05-04 15:42 -23.57358 -46.34671 11466 ft 330 kts 259°
2026-05-04 15:43 -23.57828 -46.37154 11690 ft 343 kts 258°
2026-05-04 15:43 -23.58326 -46.39727 11905 ft 355 kts 258°
2026-05-04 15:43 -23.58853 -46.42416 12110 ft 366 kts 258°
2026-05-04 15:43 -23.59395 -46.45161 12304 ft 377 kts 258°
2026-05-04 15:44 -23.59950 -46.47966 12486 ft 388 kts 258°
2026-05-04 15:44 -23.60523 -46.50872 12794 ft 394 kts 258°
2026-05-04 15:44 -23.61015 -46.53836 13259 ft 395 kts 261°
2026-05-04 15:44 -23.61456 -46.56798 13703 ft 397 kts 261°
2026-05-04 15:45 -23.61890 -46.59749 14130 ft 399 kts 261°
2026-05-04 15:45 -23.62389 -46.62712 14541 ft 401 kts 256°
2026-05-04 15:45 -23.63240 -46.65641 14946 ft 403 kts 249°
2026-05-04 15:45 -23.64432 -46.68383 15345 ft 405 kts 242°
2026-05-04 15:46 -23.65894 -46.71018 15667 ft 408 kts 239°
2026-05-04 15:46 -23.67433 -46.73653 15997 ft 411 kts 238°
2026-05-04 15:46 -23.69000 -46.76264 16353 ft 413 kts 236°
2026-05-04 15:46 -23.70868 -46.78667 16701 ft 416 kts 227°
2026-05-04 15:47 -23.73044 -46.80709 17038 ft 420 kts 219°
2026-05-04 15:47 -23.75532 -46.82447 17378 ft 423 kts 213°
2026-05-04 15:47 -23.78083 -46.84069 17704 ft 425 kts 212°
2026-05-04 15:47 -23.80647 -46.85675 18029 ft 427 kts 212°
2026-05-04 15:48 -23.83248 -46.87304 18330 ft 429 kts 212°
2026-05-04 15:48 -23.85820 -46.88919 18626 ft 430 kts 212°
2026-05-04 15:48 -23.91012 -46.92191 19235 ft 432 kts 212°
2026-05-04 15:49 -23.93638 -46.93849 19545 ft 433 kts 212°
2026-05-04 15:49 -23.96238 -46.95493 19806 ft 434 kts 212°
2026-05-04 15:49 -23.98866 -46.97156 20071 ft 436 kts 212°
2026-05-04 15:49 -24.01506 -46.98827 20335 ft 437 kts 212°
2026-05-04 15:50 -24.04124 -47.00485 20587 ft 438 kts 212°
2026-05-04 15:50 -24.06775 -47.02166 20829 ft 439 kts 212°
2026-05-04 15:50 -24.09434 -47.03851 21081 ft 441 kts 212°
2026-05-04 15:50 -24.11754 -47.05320 21272 ft 442 kts 212°
2026-05-04 15:51 -24.14436 -47.07012 21496 ft 444 kts 212°
2026-05-04 15:51 -24.17106 -47.08698 21722 ft 445 kts 212°
2026-05-04 15:51 -24.19782 -47.10394 21954 ft 446 kts 212°
2026-05-04 15:51 -24.22477 -47.12106 22170 ft 447 kts 212°
2026-05-04 15:52 -24.25148 -47.13805 22368 ft 449 kts 212°
2026-05-04 15:52 -24.27841 -47.15609 22596 ft 449 kts 214°
2026-05-04 15:52 -24.30467 -47.17423 22917 ft 447 kts 214°
2026-05-04 15:52 -24.33096 -47.19248 23272 ft 445 kts 214°
2026-05-04 15:53 -24.35717 -47.21070 23631 ft 443 kts 214°
2026-05-04 15:53 -24.38298 -47.22865 23961 ft 442 kts 214°
2026-05-04 15:53 -24.40897 -47.24673 24269 ft 440 kts 214°
2026-05-04 15:53 -24.43471 -47.26464 24581 ft 439 kts 214°
2026-05-04 15:54 -24.46045 -47.28256 24891 ft 438 kts 214°
2026-05-04 15:54 -24.48602 -47.30036 25196 ft 436 kts 214°
2026-05-04 15:54 -24.51168 -47.31824 25500 ft 435 kts 214°
2026-05-04 15:54 -24.53741 -47.33617 25809 ft 434 kts 214°
2026-05-04 15:55 -24.56280 -47.35387 26090 ft 433 kts 215°
2026-05-04 15:55 -24.58827 -47.37164 26360 ft 432 kts 215°
2026-05-04 15:55 -24.61347 -47.38923 26622 ft 431 kts 215°
2026-05-04 15:55 -24.63858 -47.40675 26902 ft 430 kts 215°
2026-05-04 15:56 -24.66386 -47.42442 27183 ft 429 kts 215°
2026-05-04 15:56 -24.68912 -47.44207 27443 ft 428 kts 215°
2026-05-04 15:56 -24.71410 -47.45955 27705 ft 427 kts 215°
2026-05-04 15:56 -24.73930 -47.47717 28015 ft 425 kts 215°
2026-05-04 15:57 -24.76404 -47.49449 28318 ft 423 kts 215°
2026-05-04 15:57 -24.78874 -47.51178 28570 ft 422 kts 215°
2026-05-04 15:57 -24.81359 -47.52920 28845 ft 421 kts 215°
2026-05-04 15:57 -24.83804 -47.54633 29113 ft 420 kts 215°
2026-05-04 15:58 -24.86275 -47.56366 29378 ft 419 kts 216°
2026-05-04 15:58 -24.88723 -47.58084 29630 ft 417 kts 216°
2026-05-04 15:58 -24.91185 -47.59813 29882 ft 417 kts 216°
2026-05-04 15:58 -24.93632 -47.61531 30096 ft 416 kts 216°
2026-05-04 15:59 -24.96056 -47.63234 30310 ft 416 kts 216°
2026-05-04 15:59 -24.98493 -47.64948 30506 ft 417 kts 216°
2026-05-04 15:59 -25.00954 -47.66687 30688 ft 417 kts 216°
2026-05-04 15:59 -25.03383 -47.68412 30891 ft 417 kts 216°
2026-05-04 16:00 -25.05822 -47.70140 31088 ft 418 kts 216°
2026-05-04 16:00 -25.08265 -47.71865 31287 ft 418 kts 216°
2026-05-04 16:00 -25.10729 -47.73605 31489 ft 418 kts 216°
2026-05-04 16:00 -25.13197 -47.75335 31700 ft 418 kts 216°
2026-05-04 16:01 -25.15636 -47.77045 31889 ft 418 kts 216°
2026-05-04 16:01 -25.18098 -47.78774 32047 ft 419 kts 216°
2026-05-04 16:01 -25.20551 -47.80502 32163 ft 420 kts 216°
2026-05-04 16:01 -25.23013 -47.82238 32167 ft 421 kts 216°
2026-05-04 16:02 -25.27967 -47.85740 32173 ft 421 kts 216°
2026-05-04 16:03 -25.35374 -47.90986 32176 ft 421 kts 216°
2026-05-04 16:03 -25.40313 -47.94488 32179 ft 421 kts 216°
2026-05-04 16:04 -25.45248 -47.97989 32178 ft 421 kts 216°
2026-05-04 16:04 -25.52636 -48.03239 32181 ft 422 kts 216°
2026-05-04 16:05 -25.57426 -48.07001 32177 ft 419 kts 223°
2026-05-04 16:06 -25.63410 -48.13960 32173 ft 415 kts 235°
2026-05-04 16:07 -25.68984 -48.25039 32178 ft 414 kts 245°
2026-05-04 16:08 -25.73864 -48.36560 32174 ft 412 kts 245°
2026-05-04 16:09 -25.79934 -48.50951 32172 ft 413 kts 245°
2026-05-04 16:10 -25.84796 -48.62500 32176 ft 413 kts 245°
2026-05-04 16:11 -25.89622 -48.74031 32183 ft 414 kts 245°
2026-05-04 16:12 -25.96864 -48.91389 32221 ft 413 kts 245°
2026-05-04 16:13 -26.01689 -49.02991 32245 ft 414 kts 245°
2026-05-04 16:14 -26.06497 -49.14589 32236 ft 414 kts 245°
2026-05-04 16:16 -26.12506 -49.29040 32236 ft 412 kts 245°
2026-05-04 16:17 -26.18483 -49.43447 32223 ft 412 kts 245°
2026-05-04 16:18 -26.23237 -49.54997 32220 ft 412 kts 245°
2026-05-04 16:19 -26.29015 -49.69185 32223 ft 411 kts 246°
2026-05-04 16:20 -26.34902 -49.83697 32221 ft 411 kts 245°
2026-05-04 16:22 -26.40802 -49.98132 32212 ft 411 kts 245°
2026-05-04 16:23 -26.47894 -50.15549 32214 ft 411 kts 245°
2026-05-04 16:25 -26.54933 -50.32906 32203 ft 412 kts 245°
2026-05-04 16:26 -26.63040 -50.53325 32203 ft 411 kts 246°
2026-05-04 16:28 -26.68871 -50.67869 32212 ft 410 kts 246°
2026-05-04 16:29 -26.76986 -50.88191 32210 ft 410 kts 246°
2026-05-04 16:31 -26.82769 -51.02745 32193 ft 410 kts 246°
2026-05-04 16:32 -26.89708 -51.20261 32188 ft 415 kts 245°
2026-05-04 16:33 -26.94385 -51.32104 32188 ft 416 kts 246°
2026-05-04 16:34 -26.97854 -51.40910 32180 ft 413 kts 246°
2026-05-04 16:35 -27.04815 -51.58639 32178 ft 416 kts 245°
2026-05-04 16:36 -27.08293 -51.67534 32174 ft 416 kts 246°
2026-05-04 16:37 -27.11777 -51.76432 32171 ft 416 kts 246°
2026-05-04 16:38 -27.16408 -51.88271 32161 ft 415 kts 246°
2026-05-04 16:39 -27.22165 -52.03112 32149 ft 416 kts 246°
2026-05-04 16:40 -27.26758 -52.15015 32128 ft 416 kts 246°
2026-05-04 16:41 -27.32477 -52.29885 32101 ft 415 kts 246°
2026-05-04 16:43 -27.38180 -52.44769 32115 ft 415 kts 246°
2026-05-04 16:43 -27.41599 -52.53718 32121 ft 415 kts 246°
2026-05-04 16:45 -27.48379 -52.71543 32109 ft 414 kts 246°
2026-05-04 16:46 -27.54017 -52.86426 32098 ft 414 kts 246°
2026-05-04 16:47 -27.58508 -52.98325 32089 ft 414 kts 246°
2026-05-04 16:48 -27.62989 -53.10251 32085 ft 414 kts 246°
2026-05-04 16:49 -27.67463 -53.22179 32087 ft 413 kts 245°
2026-05-04 16:50 -27.71926 -53.34096 32090 ft 413 kts 246°
2026-05-04 16:51 -27.75254 -53.43015 32089 ft 414 kts 246°
2026-05-04 16:52 -27.79702 -53.54966 32076 ft 413 kts 245°
2026-05-04 16:53 -27.83036 -53.63945 32072 ft 413 kts 245°
2026-05-04 16:54 -27.87446 -53.75897 32069 ft 414 kts 246°
2026-05-04 16:55 -27.94064 -53.93858 32061 ft 414 kts 246°
2026-05-04 16:56 -27.99569 -54.08849 32056 ft 413 kts 245°
2026-05-04 16:57 -28.02860 -54.17839 32049 ft 413 kts 246°
2026-05-04 16:58 -28.07257 -54.29881 32047 ft 414 kts 245°
2026-05-04 17:00 -28.13849 -54.47902 32039 ft 414 kts 245°
2026-05-04 17:01 -28.19323 -54.62996 32029 ft 415 kts 246°
2026-05-04 17:02 -28.23675 -54.75110 32023 ft 416 kts 246°
2026-05-04 17:03 -28.26926 -54.84162 32024 ft 416 kts 246°
2026-05-04 17:03 -28.30188 -54.93261 32022 ft 415 kts 246°
2026-05-04 17:04 -28.34512 -55.05357 32018 ft 417 kts 246°
2026-05-04 17:05 -28.38856 -55.17540 32016 ft 416 kts 246°
2026-05-04 17:06 -28.42092 -55.26649 32011 ft 416 kts 246°
2026-05-04 17:07 -28.44967 -55.34759 32011 ft 417 kts 246°
2026-05-04 17:07 -28.47497 -55.41908 32010 ft 417 kts 246°
2026-05-04 17:08 -28.50731 -55.51058 32004 ft 417 kts 246°
2026-05-04 17:09 -28.52870 -55.57129 32005 ft 417 kts 246°
2026-05-04 17:09 -28.55019 -55.63240 32004 ft 416 kts 246°
2026-05-04 17:10 -28.60369 -55.78556 31999 ft 418 kts 247°
2026-05-04 17:11 -28.62515 -55.84697 32000 ft 418 kts 247°
2026-05-04 17:12 -28.65723 -55.93889 31999 ft 419 kts 247°
2026-05-04 17:13 -28.71081 -56.09277 31994 ft 419 kts 247°
2026-05-04 17:14 -28.75404 -56.21545 31991 ft 418 kts 246°
2026-05-04 17:15 -28.78687 -56.30698 31987 ft 418 kts 246°
2026-05-04 17:16 -28.83076 -56.42976 31983 ft 419 kts 246°
2026-05-04 17:17 -28.87443 -56.55242 31985 ft 419 kts 246°
2026-05-04 17:18 -28.91800 -56.67565 31984 ft 420 kts 247°
2026-05-04 17:19 -28.96138 -56.79881 31984 ft 420 kts 247°
2026-05-04 17:20 -29.00493 -56.92250 31980 ft 421 kts 247°
2026-05-04 17:20 -29.03747 -57.01514 31975 ft 420 kts 247°
2026-05-04 17:21 -29.08087 -57.13898 31974 ft 420 kts 247°
2026-05-04 17:22 -29.10199 -57.19937 31972 ft 421 kts 247°
2026-05-04 17:23 -29.14552 -57.32304 31972 ft 420 kts 247°
2026-05-04 17:24 -29.17786 -57.41592 31975 ft 421 kts 247°
2026-05-04 17:25 -29.22099 -57.54048 31978 ft 421 kts 247°
2026-05-04 17:26 -29.26485 -57.66439 31982 ft 421 kts 246°
2026-05-04 17:27 -29.32227 -57.81775 31976 ft 420 kts 246°
2026-05-04 17:28 -29.36804 -57.94076 31976 ft 420 kts 246°
2026-05-04 17:29 -29.43467 -58.12660 31975 ft 421 kts 248°
2026-05-04 17:31 -29.48553 -58.28372 31984 ft 421 kts 248°
2026-05-04 17:32 -29.53629 -58.44105 31973 ft 421 kts 249°
2026-05-04 17:33 -29.57679 -58.56706 31971 ft 422 kts 249°
2026-05-04 17:34 -29.61718 -58.69344 31963 ft 422 kts 249°
2026-05-04 17:35 -29.66657 -58.84851 31974 ft 422 kts 249°
2026-05-04 17:36 -29.68685 -58.91169 31976 ft 423 kts 249°
2026-05-04 17:36 -29.70786 -58.97504 31972 ft 423 kts 248°
2026-05-04 17:37 -29.72876 -59.03803 31965 ft 422 kts 249°
2026-05-04 17:37 -29.74962 -59.10100 31956 ft 423 kts 248°
2026-05-04 17:38 -29.77034 -59.16370 31954 ft 422 kts 249°
2026-05-04 17:38 -29.79117 -59.22689 31953 ft 422 kts 249°
2026-05-04 17:39 -29.82231 -59.32153 31955 ft 423 kts 249°
2026-05-04 17:39 -29.84303 -59.38468 31947 ft 422 kts 249°
2026-05-04 17:40 -29.86372 -59.44784 31951 ft 423 kts 249°
2026-05-04 17:40 -29.88438 -59.51102 31949 ft 422 kts 249°
2026-05-04 17:41 -29.90501 -59.57422 31947 ft 422 kts 249°
2026-05-04 17:41 -29.92553 -59.63726 31952 ft 422 kts 249°
2026-05-04 17:42 -29.94612 -59.70074 31950 ft 423 kts 249°
2026-05-04 17:42 -29.96649 -59.76373 31950 ft 423 kts 250°
2026-05-04 17:43 -29.98699 -59.82709 31951 ft 423 kts 250°
2026-05-04 17:43 -30.00758 -59.89081 31951 ft 424 kts 250°
2026-05-04 17:44 -30.02805 -59.95422 31951 ft 424 kts 250°
2026-05-04 17:44 -30.04854 -60.01786 31950 ft 424 kts 249°
2026-05-04 17:45 -30.06892 -60.08119 31951 ft 423 kts 250°
2026-05-04 17:45 -30.08943 -60.14504 31950 ft 423 kts 250°
2026-05-04 17:46 -30.10974 -60.20815 31948 ft 422 kts 250°
2026-05-04 17:46 -30.13029 -60.27151 31943 ft 422 kts 250°
2026-05-04 17:47 -30.15063 -60.33502 31935 ft 422 kts 250°
2026-05-04 17:47 -30.17090 -60.39867 31931 ft 422 kts 250°
2026-05-04 17:48 -30.19104 -60.46205 31929 ft 422 kts 250°
2026-05-04 17:48 -30.21125 -60.52575 31927 ft 422 kts 250°
2026-05-04 17:49 -30.23140 -60.58939 31926 ft 423 kts 250°
2026-05-04 17:49 -30.25145 -60.65284 31928 ft 422 kts 250°
2026-05-04 17:50 -30.27151 -60.71664 31927 ft 423 kts 251°
2026-05-04 17:50 -30.29155 -60.78047 31923 ft 423 kts 251°
2026-05-04 17:51 -30.31152 -60.84408 31918 ft 422 kts 251°
2026-05-04 17:51 -30.33150 -60.90768 31914 ft 422 kts 251°
2026-05-04 17:52 -30.35142 -60.97131 31913 ft 422 kts 251°
2026-05-04 17:52 -30.37140 -61.03524 31911 ft 422 kts 251°
2026-05-04 17:53 -30.39124 -61.09885 31913 ft 423 kts 251°
2026-05-04 17:53 -30.41110 -61.16246 31912 ft 422 kts 251°
2026-05-04 17:54 -30.43103 -61.22640 31910 ft 421 kts 251°
2026-05-04 17:54 -30.45092 -61.29031 31905 ft 422 kts 251°
2026-05-04 17:55 -30.47061 -61.35367 31905 ft 420 kts 251°
2026-05-04 17:55 -30.49037 -61.41733 31907 ft 421 kts 251°
2026-05-04 17:56 -30.51012 -61.48115 31902 ft 420 kts 251°
2026-05-04 17:56 -30.52972 -61.54461 31904 ft 421 kts 251°
2026-05-04 17:57 -30.54934 -61.60828 31904 ft 420 kts 251°
2026-05-04 17:57 -30.56889 -61.67199 31905 ft 420 kts 252°
2026-05-04 17:58 -30.58811 -61.73550 31900 ft 419 kts 252°
2026-05-04 17:58 -30.60734 -61.79903 31904 ft 419 kts 252°
2026-05-04 17:59 -30.62674 -61.86316 31897 ft 420 kts 252°
2026-05-04 18:00 -30.65566 -61.95895 31902 ft 420 kts 251°
2026-05-04 18:00 -30.67488 -62.02264 31895 ft 420 kts 252°
2026-05-04 18:01 -30.69422 -62.08683 31901 ft 420 kts 252°
2026-05-04 18:01 -30.71334 -62.15046 31889 ft 420 kts 252°
2026-05-04 18:02 -30.74218 -62.24660 31894 ft 420 kts 252°
2026-05-04 18:02 -30.76133 -62.31064 31885 ft 419 kts 252°
2026-05-04 18:03 -30.78031 -62.37423 31899 ft 418 kts 252°
2026-05-04 18:03 -30.79931 -62.43786 31895 ft 418 kts 252°
2026-05-04 18:04 -30.81831 -62.50138 31898 ft 417 kts 252°
2026-05-04 18:05 -30.84691 -62.59708 31895 ft 418 kts 252°
2026-05-04 18:05 -30.86581 -62.66042 31902 ft 417 kts 252°
2026-05-04 18:06 -30.89410 -62.75595 31885 ft 417 kts 252°
2026-05-04 18:06 -30.91312 -62.82002 31874 ft 418 kts 252°
2026-05-04 18:07 -30.93194 -62.88354 31871 ft 419 kts 253°
2026-05-04 18:07 -30.95088 -62.94771 31864 ft 418 kts 253°
2026-05-04 18:08 -30.96965 -63.01126 31853 ft 417 kts 252°
2026-05-04 18:08 -30.98857 -63.07531 31854 ft 418 kts 252°
2026-05-04 18:09 -31.02600 -63.20284 31856 ft 417 kts 253°
2026-05-04 18:10 -31.04450 -63.26678 31851 ft 417 kts 253°
2026-05-04 18:10 -31.06303 -63.33072 31856 ft 417 kts 253°
2026-05-04 18:11 -31.08153 -63.39463 31867 ft 419 kts 253°
2026-05-04 18:11 -31.10005 -63.45867 31865 ft 418 kts 253°
2026-05-04 18:12 -31.11873 -63.52259 31860 ft 418 kts 252°
2026-05-04 18:12 -31.13748 -63.58694 31866 ft 417 kts 253°
2026-05-04 18:13 -31.15592 -63.65078 31868 ft 418 kts 253°
2026-05-04 18:14 -31.18352 -63.74719 31870 ft 418 kts 254°
2026-05-04 18:14 -31.20175 -63.81106 31872 ft 418 kts 253°
2026-05-04 18:15 -31.23831 -63.93930 31875 ft 417 kts 253°
2026-05-04 18:16 -31.25651 -64.00330 31879 ft 417 kts 253°
2026-05-04 18:16 -31.27477 -64.06767 31883 ft 417 kts 253°
2026-05-04 18:17 -31.30194 -64.16373 31885 ft 416 kts 254°
2026-05-04 18:18 -31.33269 -64.25857 31895 ft 418 kts 250°
2026-05-04 18:18 -31.35486 -64.32135 31902 ft 418 kts 250°
2026-05-04 18:19 -31.38800 -64.41528 31910 ft 417 kts 250°
2026-05-04 18:19 -31.41012 -64.47807 31911 ft 418 kts 250°
2026-05-04 18:20 -31.43216 -64.54070 31923 ft 418 kts 250°
2026-05-04 18:20 -31.45431 -64.60383 31949 ft 419 kts 250°
2026-05-04 18:21 -31.47626 -64.66652 31983 ft 419 kts 251°
2026-05-04 18:21 -31.49828 -64.72980 32017 ft 418 kts 250°
2026-05-04 18:22 -31.52014 -64.79255 32040 ft 418 kts 250°
2026-05-04 18:22 -31.54214 -64.85572 32035 ft 418 kts 250°
2026-05-04 18:23 -31.56406 -64.91874 32017 ft 420 kts 250°
2026-05-04 18:23 -31.58595 -64.98177 31996 ft 420 kts 251°
2026-05-04 18:24 -31.60782 -65.04485 31969 ft 419 kts 251°
2026-05-04 18:24 -31.62974 -65.10818 31954 ft 421 kts 250°
2026-05-04 18:25 -31.65169 -65.17177 31944 ft 420 kts 251°
2026-05-04 18:25 -31.67351 -65.23520 31931 ft 420 kts 250°
2026-05-04 18:26 -31.69520 -65.29844 31912 ft 420 kts 251°
2026-05-04 18:26 -31.71705 -65.36213 31899 ft 420 kts 251°
2026-05-04 18:27 -31.73879 -65.42565 31887 ft 420 kts 250°
2026-05-04 18:27 -31.76059 -65.48938 31875 ft 422 kts 251°
2026-05-04 18:28 -31.78229 -65.55292 31865 ft 422 kts 251°
2026-05-04 18:28 -31.80401 -65.61670 31856 ft 422 kts 251°
2026-05-04 18:29 -31.82564 -65.68040 31852 ft 421 kts 251°
2026-05-04 18:29 -31.84730 -65.74444 31851 ft 421 kts 251°
2026-05-04 18:30 -31.87973 -65.84016 31853 ft 422 kts 251°
2026-05-04 18:31 -31.90149 -65.90447 31861 ft 423 kts 251°
2026-05-04 18:31 -31.92312 -65.96856 31861 ft 422 kts 251°
2026-05-04 18:32 -31.94456 -66.03249 31862 ft 422 kts 251°
2026-05-04 18:32 -31.96603 -66.09688 31863 ft 423 kts 251°
2026-05-04 18:33 -31.98743 -66.16095 31863 ft 422 kts 251°
2026-05-04 18:33 -32.00877 -66.22491 31862 ft 423 kts 251°
2026-05-04 18:34 -32.03022 -66.28924 31864 ft 424 kts 251°
2026-05-04 18:34 -32.05170 -66.35377 31857 ft 424 kts 251°
2026-05-04 18:35 -32.07315 -66.41830 31858 ft 424 kts 251°
2026-05-04 18:35 -32.09464 -66.48325 31857 ft 424 kts 251°
2026-05-04 18:36 -32.11298 -66.54912 31846 ft 423 kts 256°
2026-05-04 18:36 -32.12902 -66.61550 31847 ft 423 kts 256°
2026-05-04 18:37 -32.14496 -66.68218 31845 ft 423 kts 257°
2026-05-04 18:37 -32.16072 -66.74880 31844 ft 423 kts 257°
2026-05-04 18:38 -32.17656 -66.81581 31843 ft 424 kts 257°
2026-05-04 18:38 -32.19233 -66.88264 31847 ft 423 kts 257°
2026-05-04 18:39 -32.20801 -66.94923 31851 ft 423 kts 257°
2026-05-04 18:39 -32.22370 -67.01602 31856 ft 424 kts 257°
2026-05-04 18:40 -32.23936 -67.08292 31857 ft 424 kts 257°
2026-05-04 18:40 -32.25500 -67.14985 31858 ft 425 kts 257°
2026-05-04 18:41 -32.27065 -67.21703 31858 ft 425 kts 257°
2026-05-04 18:41 -32.28620 -67.28400 31852 ft 424 kts 257°
2026-05-04 18:42 -32.30184 -67.35147 31848 ft 426 kts 257°
2026-05-04 18:42 -32.31740 -67.41869 31838 ft 426 kts 257°
2026-05-04 18:43 -32.33290 -67.48600 31832 ft 426 kts 257°
2026-05-04 18:43 -32.34844 -67.55351 31825 ft 426 kts 257°
2026-05-04 18:44 -32.36387 -67.62085 31827 ft 427 kts 257°
2026-05-04 18:44 -32.37933 -67.68845 31829 ft 427 kts 257°
2026-05-04 18:45 -32.39471 -67.75616 31824 ft 427 kts 257°
2026-05-04 18:45 -32.41006 -67.82360 31827 ft 427 kts 257°
2026-05-04 18:46 -32.42538 -67.89117 31827 ft 427 kts 257°
2026-05-04 18:46 -32.44076 -67.95918 31828 ft 428 kts 257°
2026-05-04 18:47 -32.45605 -68.02690 31830 ft 429 kts 257°
2026-05-04 18:47 -32.47132 -68.09469 31828 ft 428 kts 257°
2026-05-04 18:48 -32.48667 -68.16294 31834 ft 428 kts 257°
2026-05-04 18:48 -32.50191 -68.23095 31844 ft 428 kts 257°
2026-05-04 18:49 -32.51711 -68.29884 31844 ft 429 kts 257°
2026-05-04 18:49 -32.53223 -68.36690 31858 ft 429 kts 257°
2026-05-04 18:50 -32.54725 -68.43489 31866 ft 430 kts 257°
2026-05-04 18:50 -32.56243 -68.50362 31862 ft 430 kts 257°
2026-05-04 18:51 -32.57747 -68.57182 31872 ft 430 kts 257°
2026-05-04 18:51 -32.59249 -68.64006 31883 ft 431 kts 257°
2026-05-04 18:52 -32.60749 -68.70856 31885 ft 431 kts 258°
2026-05-04 18:52 -32.62250 -68.77738 31890 ft 431 kts 258°
2026-05-04 18:53 -32.63747 -68.84602 31913 ft 432 kts 258°
2026-05-04 18:53 -32.65247 -68.91499 31944 ft 433 kts 258°
2026-05-04 18:54 -32.66739 -68.98373 31991 ft 431 kts 258°
2026-05-04 18:54 -32.68220 -69.05216 32061 ft 430 kts 258°
2026-05-04 18:55 -32.69698 -69.12062 32153 ft 428 kts 258°
2026-05-04 18:55 -32.71900 -69.22294 32267 ft 427 kts 258°
2026-05-04 18:56 -32.73357 -69.29089 32413 ft 422 kts 258°
2026-05-04 18:56 -32.74785 -69.35777 32475 ft 420 kts 258°
2026-05-04 18:57 -32.76217 -69.42488 32494 ft 418 kts 258°
2026-05-04 18:57 -32.77628 -69.49129 32546 ft 416 kts 258°
2026-05-04 18:58 -32.79037 -69.55761 32557 ft 415 kts 258°
2026-05-04 18:58 -32.80449 -69.62436 32108 ft 418 kts 258°
2026-05-04 18:59 -32.81146 -69.65748 31234 ft 419 kts 259°
2026-05-04 18:59 -32.81845 -69.69087 30432 ft 418 kts 258°
2026-05-04 18:59 -32.82541 -69.72409 29662 ft 416 kts 258°
2026-05-04 18:59 -32.83242 -69.75737 28877 ft 416 kts 259°
2026-05-04 19:00 -32.83944 -69.79067 28079 ft 416 kts 259°
2026-05-04 19:00 -32.84634 -69.82358 27256 ft 417 kts 258°
2026-05-04 19:00 -32.85334 -69.85703 26420 ft 417 kts 258°
2026-05-04 19:00 -32.86026 -69.89013 25559 ft 419 kts 258°
2026-05-04 19:01 -32.86726 -69.92381 24674 ft 420 kts 258°
2026-05-04 19:01 -32.87378 -69.95724 23799 ft 420 kts 261°
2026-05-04 19:01 -32.87760 -69.99126 23035 ft 416 kts 267°
2026-05-04 19:01 -32.87864 -70.02525 22440 ft 410 kts 271°
2026-05-04 19:02 -32.87707 -70.05870 21887 ft 403 kts 276°
2026-05-04 19:02 -32.87433 -70.09173 21257 ft 400 kts 276°
2026-05-04 19:02 -32.87146 -70.12438 20633 ft 397 kts 277°
2026-05-04 19:02 -32.86856 -70.15637 20002 ft 394 kts 277°
2026-05-04 19:03 -32.86563 -70.18864 19530 ft 386 kts 277°
2026-05-04 19:03 -32.86283 -70.21962 19296 ft 372 kts 277°
2026-05-04 19:03 -32.86007 -70.24994 19046 ft 360 kts 277°
2026-05-04 19:03 -32.85741 -70.27879 18824 ft 348 kts 277°
2026-05-04 19:04 -32.85483 -70.30674 18609 ft 336 kts 277°
2026-05-04 19:04 -32.85232 -70.33380 18571 ft 319 kts 277°
2026-05-04 19:04 -32.84993 -70.35924 18269 ft 313 kts 278°
2026-05-04 19:04 -32.84753 -70.38477 17910 ft 308 kts 278°
2026-05-04 19:05 -32.84515 -70.40981 17479 ft 306 kts 278°
2026-05-04 19:05 -32.84279 -70.43484 17047 ft 304 kts 278°
2026-05-04 19:05 -32.84048 -70.45957 16626 ft 301 kts 278°
2026-05-04 19:05 -32.83820 -70.48396 16241 ft 297 kts 278°
2026-05-04 19:06 -32.83591 -70.50825 15880 ft 293 kts 278°
2026-05-04 19:06 -32.83367 -70.53212 15531 ft 290 kts 278°
2026-05-04 19:06 -32.83145 -70.55572 15200 ft 287 kts 278°
2026-05-04 19:06 -32.83094 -70.57951 14741 ft 292 kts 262°
2026-05-04 19:07 -32.83964 -70.60129 14178 ft 304 kts 233°
2026-05-04 19:07 -32.85525 -70.61835 13757 ft 306 kts 224°
2026-05-04 19:07 -32.87139 -70.63444 13337 ft 305 kts 224°
2026-05-04 19:07 -32.88752 -70.65083 12949 ft 305 kts 225°
2026-05-04 19:08 -32.90345 -70.66746 12495 ft 305 kts 226°
2026-05-04 19:08 -32.91927 -70.68423 12094 ft 303 kts 226°
2026-05-04 19:08 -32.93496 -70.70096 11683 ft 302 kts 226°
2026-05-04 19:08 -32.95047 -70.71755 11251 ft 301 kts 226°
2026-05-04 19:09 -32.96615 -70.73432 10855 ft 299 kts 225°
2026-05-04 19:09 -32.98150 -70.75075 10488 ft 298 kts 226°
2026-05-04 19:09 -32.99687 -70.76719 10097 ft 297 kts 226°
2026-05-04 19:09 -33.01212 -70.78355 9741 ft 296 kts 226°
2026-05-04 19:10 -33.02674 -70.79922 9357 ft 295 kts 225°
2026-05-04 19:10 -33.04267 -70.81489 8963 ft 298 kts 213°
2026-05-04 19:10 -33.06227 -70.82197 8620 ft 301 kts 183°
2026-05-04 19:10 -33.08323 -70.82107 8389 ft 295 kts 177°
2026-05-04 19:11 -33.10341 -70.81936 8099 ft 289 kts 177°
2026-05-04 19:11 -33.12342 -70.81776 7840 ft 283 kts 177°
2026-05-04 19:11 -33.14267 -70.81644 7582 ft 278 kts 178°
2026-05-04 19:11 -33.16191 -70.81525 7303 ft 274 kts 178°
2026-05-04 19:12 -33.18071 -70.81416 7038 ft 269 kts 178°
2026-05-04 19:12 -33.21773 -70.81209 6479 ft 262 kts 178°
2026-05-04 19:12 -33.23588 -70.81112 6223 ft 257 kts 178°
2026-05-04 19:13 -33.25365 -70.81016 5937 ft 253 kts 178°
2026-05-04 19:13 -33.27105 -70.80921 5685 ft 247 kts 178°
2026-05-04 19:13 -33.28787 -70.80829 5279 ft 238 kts 178°
2026-05-04 19:13 -33.30393 -70.80736 5053 ft 219 kts 177°
2026-05-04 19:14 -33.31846 -70.80653 4892 ft 201 kts 178°
2026-05-04 19:14 -33.33207 -70.80579 4595 ft 192 kts 178°
2026-05-04 19:14 -33.34643 -70.80514 4551 ft 215 kts 178°
2026-05-04 19:14 -33.36129 -70.80447 4900 ft 212 kts 178°
2026-05-04 19:15 -33.37688 -70.80351 4944 ft 233 kts 175°
2026-05-04 19:15 -33.39315 -70.80015 4988 ft 240 kts 162°
2026-05-04 19:15 -33.40699 -70.78906 4844 ft 241 kts 128°
2026-05-04 19:15 -33.41376 -70.77145 4893 ft 238 kts 97°
2026-05-04 19:16 -33.41486 -70.75143 4961 ft 239 kts 89°
2026-05-04 19:16 -33.41342 -70.73170 4977 ft 238 kts 70°
2026-05-04 19:16 -33.40484 -70.71539 4996 ft 234 kts 39°
2026-05-04 19:16 -33.39043 -70.70707 5007 ft 232 kts
2026-05-04 19:17 -33.37427 -70.70730 5027 ft 233 kts 353°
2026-05-04 19:17 -33.35819 -70.71001 5028 ft 234 kts 351°
2026-05-04 19:17 -33.34188 -70.71325 5020 ft 234 kts 351°
2026-05-04 19:17 -33.32616 -70.71646 4988 ft 223 kts 350°
2026-05-04 19:18 -33.31135 -70.71950 5014 ft 214 kts 350°
2026-05-04 19:18 -33.29663 -70.72252 5026 ft 215 kts 350°
2026-05-04 19:18 -33.28178 -70.72530 5026 ft 214 kts 357°
2026-05-04 19:18 -33.26696 -70.72467 5041 ft 218 kts 10°
2026-05-04 19:19 -33.25185 -70.71983 5297 ft 233 kts 18°
2026-05-04 19:19 -33.23610 -70.71304 5734 ft 244 kts 20°
2026-05-04 19:19 -33.22007 -70.70575 6350 ft 247 kts 20°
2026-05-04 19:19 -33.20449 -70.69850 6994 ft 240 kts 20°
2026-05-04 19:20 -33.18938 -70.69135 7006 ft 229 kts 19°
2026-05-04 19:20 -33.17398 -70.68795 6727 ft 221 kts 351°
2026-05-04 19:20 -33.16022 -70.69487 6475 ft 214 kts 317°
2026-05-04 19:20 -33.15252 -70.70967 6239 ft 216 kts 284°
2026-05-04 19:21 -33.15311 -70.72749 6026 ft 220 kts 249°
2026-05-04 19:21 -33.16122 -70.74287 5839 ft 224 kts 234°
2026-05-04 19:21 -33.17078 -70.75755 5619 ft 225 kts 233°
2026-05-04 19:21 -33.18044 -70.77252 5359 ft 225 kts 234°
2026-05-04 19:22 -33.18989 -70.78731 5067 ft 223 kts 234°
2026-05-04 19:22 -33.20158 -70.79912 4762 ft 223 kts 202°
2026-05-04 19:22 -33.21647 -70.80130 4557 ft 214 kts 172°
2026-05-04 19:22 -33.23049 -70.79784 4370 ft 196 kts 167°
2026-05-04 19:23 -33.24351 -70.79507 4102 ft 183 kts 172°
2026-05-04 19:23 -33.25581 -70.79348 3840 ft 173 kts 175°
2026-05-04 19:23 -33.26769 -70.79252 3624 ft 172 kts 177°
2026-05-04 19:23 -33.27956 -70.79182 3407 ft 171 kts 178°
2026-05-04 19:24 -33.29154 -70.79118 3180 ft 171 kts 179°
2026-05-04 19:24 -33.30335 -70.79057 2965 ft 169 kts 178°
2026-05-04 19:24 -33.31497 -70.78994 2748 ft 165 kts 178°
2026-05-04 19:24 -33.32645 -70.78934 2539 ft 162 kts 177°
2026-05-04 19:25 -33.33758 -70.78873 2330 ft 159 kts 177°
2026-05-04 19:25 -33.34854 -70.78817 2134 ft 157 kts 177°
2026-05-04 19:25 -33.35938 -70.78765 1924 ft 156 kts 175°
2026-05-04 19:25 -33.37017 -70.78702 1746 ft 153 kts 176°
2026-05-04 19:26 -33.38083 -70.78653 1589 ft 152 kts 174°
2026-05-04 19:26 -33.39098 -70.78592 1567 ft 134 kts 175°
2026-05-04 19:26 -33.39856 -70.78548 1566 ft 86 kts 179°
2026-05-04 19:26 -33.40284 -70.78525 1566 ft 41 kts 177°
2026-05-04 19:27 -33.40458 -70.78531 1565 ft 18 kts 220°
2026-05-04 19:27 -33.40464 -70.78655 1565 ft 16 kts 311°
2026-05-04 19:27 -33.40400 -70.78714 1566 ft 7 kts 327°
2026-05-04 19:27 -33.40390 -70.78768 1566 ft 4 kts 266°
2026-05-04 19:28 -33.40394 -70.78814 1566 ft 6 kts 254°
2026-05-04 19:28 -33.40412 -70.78869 1566 ft 7 kts 255°
2026-05-04 19:28 -33.40416 -70.78939 1566 ft 9 kts 268°
2026-05-04 19:28 -33.40415 -70.78988 1566 ft 3 kts 293°
2026-05-04 19:29 -33.40390 -70.79009 1566 ft 5 kts 339°
2026-05-04 19:29 -33.40370 -70.79018 1566 ft 1 kts 339°
2026-05-04 19:29 -33.40362 -70.79022 1566 ft 1 kts 341°
2026-05-04 19:29 -33.40361 -70.79022 1566 ft 0 kts 340°